Skip Page Navigation
NASA JPL Caltech
NASA Logo - Jet Propulsion Laboratory + View the NASA Portal
+ Near-Earth Object (NEO) Program
Search JPL
JPL Home Earth Solar System Stars & Galaxies Technology
JPL Solar System Dynamics
BODIES ORBITS EPHEMERIDES TOOLS PHYSICAL DATA DISCOVERY FAQ SITE MAP
JPL Small-Body Database Browser
Search: [ help ]  
(2002 SZ)
Classification: Apollo [NEO, PHA]          SPK-ID: 3137688
Ephemeris | Orbit Diagram | Orbital Elements | Physical Parameters | Close-Approach Data ]

[ hide orbit diagram ]
Orbit Diagram
Note: Make sure you have Java enabled on your browser to see the applet. This applet is provided as a 3D orbit visualization tool. The applet was implemented using 2-body methods, and hence should not be used for determining accurate long-term trajectories (over several years or decades) or planetary encounter circumstances. For accurate long-term ephemerides, please instead use our Horizons system.
Orbit Viewer

Additional Notes: the orbits shown in the applet are color coded. The planets are white lines, and the asteroid/comet is a blue line. The bright white line indicates the portion of the orbit that is above the ecliptic plane, and the darker portion is below the ecliptic plane. Likewise for the asteroid/comet orbit, the light blue indicates the portion above the ecliptic plane, and the dark blue the portion below the ecliptic plane.

Orbit Viewer applet originally written and kindly provided by Osamu Ajiki (AstroArts), and further modified by Ron Baalke (JPL).


Orbital Elements at Epoch 2456400.5 (2013-Apr-18.0) TDB
Reference: JPL 29 (heliocentric ecliptic J2000)
 Element Value Uncertainty (1-sigma)   Units 
e .4335802122992674 1.731e-07  
a 1.29758899174855 1.9185e-08 AU
q .7349800812290216 2.3507e-07 AU
i 22.89187286321358 2.6488e-05 deg
node 346.9130395069786 1.9942e-05 deg
peri 276.4659549265315 2.1632e-05 deg
M 101.3815757240108 4.4863e-05 deg
tp 2456248.459008948959
(2012-Nov-16.95900895)
6.4388e-05 JED
period 539.88859797739
1.48
1.1974e-05
3.278e-08
d
yr
n .6668042284069063 1.4788e-08 deg/d
Q 1.860197902268079 2.7504e-08 AU
  Orbit Determination Parameters
   # obs. used (total)      141  
   data-arc span      3103 days (8.50 yr)  
   first obs. used      2002-09-26  
   last obs. used      2011-03-26  
   planetary ephem.      DE405  
   SB-pert. ephem.      SB405-CPV-2  
   condition code      0  
   fit RMS      .66933  
   data source      ORB  
   producer      Otto Matic  
   solution date      2011-Sep-14 19:47:34  

Additional Information
 Earth MOID = .00155835 AU 
 T_jup = 4.839 
[ show covariance matrix ]

Ephemeris | Orbit Diagram | Orbital Elements | Physical Parameters | Close-Approach Data ]

Physical Parameter Table
Parameter Symbol Value Units Sigma Reference Notes
absolute magnitude H 20.406 mag .40157 29 autocmod 2.5a

[ show close-approach data ]
Ephemeris | Orbit Diagram | Orbital Elements | Physical Parameters | Close-Approach Data ]
ABOUT SSD CREDITS/AWARDS PRIVACY/COPYRIGHT GLOSSARY LINKS
FirstGov 2013-May-18 10:32 UT
(server date/time)  
NASA Home Page
Site Manager:   Donald K. Yeomans
Webmaster  Alan B. Chamberlin